Regional Weather Roundup
Issued by NWS

Home | Current Version | Previous Version | Text Only | Print | Product List | Glossary Off
Versions: 1 2 3 4 5 6 7 8 9 10 11 12 13 14 15 16 17 18 19 20 21 22 23 24 25 26 27 28 29 30 31 32 33 34 35 36 37 38 39 40 41 42 43 44 45 46 47 48 49 50

000
ASUS44 KMEG 231810
RWRTN
TENNESSEE HOURLY STATE WEATHER ROUNDUP
NATIONAL WEATHER SERVICE MEMPHIS TN
100 PM CDT SUN APR 23 2017

TNZ002-004-019-021-049-052-054-088>092-231900-
WEST TENNESSEE

CITY           SKY/WX    TMP DP  RH WIND       PRES   REMARKS
MEMPHIS INTL   CLOUDY    58  46  64 N14G22    29.93F
NWS MEMPHIS      N/A     54 N/A N/A MISG        N/A
JACKSON        RAIN      49  48  97 N15       29.93F
DYERSBURG      CLOUDY    51  48  89 VRB5      29.95F
SOMERVILLE     CLOUDY    50  46  87 N12G17    29.93S
UNION CITY     PTSUNNY   55  48  76 N12       29.93F
BOLIVAR        CLOUDY    48  46  93 NW8G15    29.92F
PARIS          CLOUDY    48  43  81 N9        29.92S
HUNTINGDON     CLOUDY    50  46  87 VRB7      29.91F
LEXINGTON      CLOUDY    48  46  93 N8G17     29.90S FOG
SAVANNAH       PTSUNNY   50  48  93 NW10G18   29.88F FOG
$$

TNZ008-025-027-028-033-062-065-066-231900-
NORTH MIDDLE TENNESSEE

CITY           SKY/WX    TMP DP  RH WIND       PRES   REMARKS
NASHVILLE      LGT RAIN  51  49  92 N16       29.86S FOG
PORTLAND       CLOUDY    48  46  93 NE15      29.86F
CLARKSVILLE    LGT RAIN  50  44  80 N16       29.91F
SMYRNA         LGT RAIN  52  51  97 N13       29.86R
COOKEVILLE     MOSUNNY   55  54  94 NE5G12    29.81F
CROSSVILLE     LGT RAIN  54  52  93 N6        29.82S
$$

TNZ061-075-076-078-094-096-097-231900-
SOUTH MIDDLE TENNESSEE

CITY           SKY/WX    TMP DP  RH WIND       PRES   REMARKS
FAYETTEVILLE   PTSUNNY   54  54 100 NW7       29.81F
TULLAHOMA      CLOUDY    54  54 100 NW5       29.81F VSB 1
WINCHESTER     CLOUDY    55  54  94 VRB6      29.81S VSB 3/4
MCMINNVILLE    MOSUNNY   55  55 100 NE12      29.79F
COLUMBIA       CLOUDY   N/A N/A N/A N6        29.83S
SHELBYVILLE    CLOUDY    55  55 100 N8        29.83S
$$

TNZ017-018-042-046-047-231900-
NORTHEAST TENNESSEE

CITY           SKY/WX    TMP DP  RH WIND       PRES   REMARKS
TRI CITIES     RAIN      52  50  93 VRB5      29.91F FOG
ELIZABETHTON   RAIN      54  50  87 E8        29.91S
$$

TNZ012-013-036-069-073-074-231900-
CENTRAL EAST TENNESSEE

CITY           SKY/WX    TMP DP  RH WIND       PRES   REMARKS
KNOXVILLE      LGT RAIN  60  57  89 E9        29.76F FOG
OAK RIDGE      HVY RAIN  57  55  93 VRB3      29.81R VSB 1
DOWNTOWN KNOXV PTSUNNY   59  59 100 E10G18    29.78F FOG
GATLINBURG     CLOUDY    59  57  94 NE7       29.78F
MORRISTOWN     PTSUNNY   55  55 100 E13G22    29.82S FOG
JACKSBORO      CLOUDY    55  54  94 N6G12     29.85S FOG
$$

TNZ083-085-099-231900-
SOUTHEAST TENNESSEE

CITY           SKY/WX    TMP DP  RH WIND       PRES   REMARKS
CHATTANOOGA    HVY RAIN  61  59  93 S3        29.78F FOG
$$

SKY/WX REPORTED AS FAIR MEANS FEW OR NO CLOUDS BELOW
12 THOUSAND FEET.




USA.gov is the U.S. government's official web portal to all federal, state and local government web resources and services.